| time (UTC) | temp F | wind direction | speed MPH | gust MPH | rain 1hr in | rain 24hr in | rain mn in | humidity % | barometer mb |
| 20260505013119 | 76 | 261 | 9.0 | 19.0 | 0.00 | 0.00 | 0.00 | 41 | 1010.0 |
| 20260505010033 | 77 | 307 | 5.0 | 11.0 | 0.00 | 0.00 | 0.00 | 44 | 1010.0 |
| 20260505004530 | 78 | 315 | 6.0 | 13.0 | 0.00 | 0.00 | 0.00 | 43 | 1010.1 |
| 20260505003031 | 79 | 323 | 6.0 | 15.0 | 0.00 | 0.00 | 0.00 | 41 | 1010.1 |
| 20260505000028 | 80 | 330 | 6.0 | 14.0 | 0.00 | 0.00 | 0.00 | 41 | 1010.2 |
| 20260504234531 | 80 | 330 | 7.0 | 16.0 | 0.00 | 0.00 | 0.00 | 41 | 1010.2 |
| 20260504231530 | 81 | 336 | 5.0 | 12.0 | 0.00 | 0.00 | 0.00 | 39 | 1010.4 |
| 20260504230031 | 82 | 330 | 6.0 | 15.0 | 0.00 | 0.00 | 0.00 | 38 | 1010.5 |
| 20260504224531 | 82 | 333 | 7.0 | 16.0 | 0.00 | 0.00 | 0.00 | 37 | 1010.7 |
| 20260504223029 | 84 | 324 | 6.0 | 15.0 | 0.00 | 0.00 | 0.00 | 35 | 1010.8 |
| 20260504221531 | 84 | 323 | 5.0 | 13.0 | 0.00 | 0.00 | 0.00 | 35 | 1010.9 |
| 20260504220032 | 85 | 327 | 5.0 | 12.0 | 0.00 | 0.00 | 0.00 | 33 | 1011.0 |
| 20260504214530 | 85 | 325 | 4.0 | 11.0 | 0.00 | 0.00 | 0.00 | 31 | 1011.2 |
| 20260504210031 | 85 | 317 | 4.0 | 10.0 | 0.00 | 0.00 | 0.00 | 31 | 1011.6 |
| 20260504204531 | 84 | 312 | 4.0 | 11.0 | 0.00 | 0.00 | 0.00 | 32 | 1011.7 |
| 20260504203104 | 84 | 313 | 4.0 | 11.0 | 0.00 | 0.00 | 0.00 | 33 | 1011.8 |
| 20260504201530 | 83 | 322 | 5.0 | 13.0 | 0.00 | 0.00 | 0.00 | 33 | 1011.9 |
| 20260504200031 | 83 | 315 | 5.0 | 11.0 | 0.00 | 0.00 | 0.00 | 35 | 1012.0 |
| 20260504194531 | 82 | 314 | 6.0 | 12.0 | 0.00 | 0.00 | 0.00 | 38 | 1012.1 |
| 20260504193030 | 81 | 310 | 6.0 | 14.0 | 0.00 | 0.00 | 0.00 | 39 | 1012.1 |
| 20260504191646 | 81 | 316 | 6.0 | 14.0 | 0.00 | 0.00 | 0.00 | 39 | 1012.2 |
| 20260504190031 | 81 | 321 | 6.0 | 13.0 | 0.00 | 0.00 | 0.00 | 42 | 1012.3 |
| 20260504184605 | 79 | 327 | 4.0 | 12.0 | 0.00 | 0.00 | 0.00 | 44 | 1012.4 |
| 20260504181529 | 74 | 332 | 3.0 | 8.0 | 0.00 | 0.00 | 0.00 | 50 | 1012.5 |
| 20260504174531 | 72 | 325 | 3.0 | 10.0 | 0.00 | 0.00 | 0.00 | 52 | 1012.5 |
| 20260504173029 | 71 | 325 | 3.0 | 8.0 | 0.00 | 0.00 | 0.00 | 53 | 1012.5 |
| 20260504171529 | 71 | 309 | 2.0 | 6.0 | 0.00 | 0.00 | 0.00 | 54 | 1012.4 |
| 20260504081526 | 53 | 247 | 1.0 | 7.0 | 0.00 | 0.00 | 0.00 | 70 | 1012.4 |
| 20260504044531 | 59 | 173 | 2.0 | 4.0 | 0.00 | 0.00 | 0.00 | 64 | 1012.2 |
| 20260504043032 | 59 | 207 | 1.0 | 4.0 | 0.00 | 0.00 | 0.00 | 64 | 1012.2 |
| 20260504041530 | 59 | 211 | 1.0 | 4.0 | 0.00 | 0.00 | 0.00 | 66 | 1011.9 |
| 20260504040037 | 60 | 286 | 0.0 | 3.0 | 0.00 | 0.00 | 0.00 | 65 | 1011.7 |
| 20260504033146 | 63 | 337 | 0.0 | 3.0 | 0.00 | 0.00 | 0.00 | 60 | 1011.4 |
| 20260504030030 | 68 | 22 | 0.0 | 2.0 | 0.00 | 0.00 | 0.00 | 50 | 1011.2 |
| 20260504024530 | 71 | 22 | 2.0 | 4.0 | 0.00 | 0.00 | 0.00 | 45 | 1011.2 |
| 20260504023103 | 74 | 17 | 2.0 | 4.0 | 0.00 | 0.00 | 0.00 | 41 | 1011.2 |
| 20260504021606 | 76 | 18 | 3.0 | 5.0 | 0.00 | 0.00 | 0.00 | 39 | 1011.3 |
| 20260504020030 | 77 | 22 | 3.0 | 4.0 | 0.00 | 0.00 | 0.00 | 39 | 1011.4 |